Карточка аэропорта UUBW

Внимание!
Информация на этой странице в стадии наполнения.
Если вы не увидели какой-то информации, или заметили неточность - пожалуйста сообщите нам!
Спасибо!
Команда RU-STAFF
Название аэропортаРаменское
Название аэропорта (англ.)Ramenskoye
Превышение1325 ft. (403.9 m.)
Координаты55°33.168', 38°8.9820000000002'
Высота перехода10000 ft
Эшелон переходаQNH>=1013hPa:FL110; QNH<1013hPa:FL120; QNH<977hPa:FL130
Коды ответчика
Зона ОрВДМосква РПИ (UUWV)
Данные METARUUBW 021800Z 13004MPS 9999 BKN014 M01/M04 Q1009 R30/290050 NOSIG
Проноз погоды (TAF)UUBW 021656Z 0218/0318 14003G08MPS 6000 FEW006 BKN016 TX00/0312Z TNM02/0305Z TEMPO 0218/0309 2100 -SHSN BR BKN006 BKN012CB PROB40 TEMPO 0218/0309 -FZRA TEMPO 0309/0318 15008MPS -SHSN BKN012CB PROB40 TEMPO 0313/0318 -FZRA
NOTAMshow/hide NOTAM
AWOS   TABLE

Информация о ВПП

ВПП Длина ВПП (м.) Покрытие Курс ВПП Частота ILS
124600Цементобетон121 
304600Цементобетон301 

Диспетчерские позиции


Сценарии

Сценарий
Нет результатов.


Спутниковое изображение